Location: Avon Lake
(41.5219°N, 93.5010°W)
Time: 06:53:21
(UTC+00:00)

X-37B - Visible Passes

Search period start: 02 December 2022 00:00
Search period end: 12 December 2022 00:00
Orbit: 277 x 277 km, 45.0° (Epoch: 01 November)

Date Brightness Start Highest point End Pass type
(mag) Time Alt. Az. Time Alt. Az. Time Alt. Az.
07 Dec 3.7 01:02:00 10° WSW 01:02:05 11° WSW 01:02:05 11° WSW visible
07 Dec 2.0 23:29:21 10° SSW 23:31:08 18° SSE 23:32:48 11° ESE visible
08 Dec 3.8 01:02:41 10° WSW 01:02:51 11° W 01:02:51 11° W visible
08 Dec 1.1 23:29:28 10° SW 23:31:43 32° SSE 23:33:32 13° E visible
09 Dec 3.8 01:03:29 10° W 01:03:35 11° W 01:03:35 11° W visible
09 Dec 0.2 23:29:55 10° WSW 23:32:19 60° SSE 23:34:13 15° ENE visible
10 Dec -0.1 23:30:34 10° WSW 23:33:00 78° NNW 23:34:52 16° ENE visible
11 Dec 0.3 23:31:19 10° W 23:33:43 50° NNW 23:35:30 16° ENE visible
